Probability
0 0 0 0 0 0 0 0 0 0 0 0 0 0 0 0 0 0 0 0 0 0 0 0 0 0 0 0 0 0 0 0 0 0 0 0 0 0 0 0 0 0 0
0 0 0 0 0 0 0 0 0 0 0 0 0 0 0 0 0 0 0 0 0 0 0 0 0 0 0 0 0 0 0 0 0 0 0 0 0 0 0 0 0 0 0
0 0 0 0 0 0 0 0 0 0 0 0 0 0 0 0 0 0 0 0 0 0 0 0 0 0 0 0 0 0 0 0 0 0 0 0 0 0 0 0 0 0 0
0 0 0 0 0 0 0 0 0 0 0 0 0 0 0 0 0 0 0 0 0 0 0 0 0 0 0 0 0 0 0 0 0 0 0 0 0 0 0 0 0 0 0
0 0 0 0 0 0 0 0 0 0 0 0 0 0 0 0 0 0 0 0 0 0 0 0 0 0 0 0 0 0 0 0 0 0 0 0 0 0 0 0 0 0 0
0 0 0 0 0 0 0 0 0 0 0 0 0 0 0 0 0 0 0 0 0 0 0 0 0 0 0 0 0 0 0 0 0 0 0 0 0 0 0 0 0 0 0
0 0 0 0 0 0 0 0 0 0 0 0 0 0 0 0 0 0 0 0 0 0 0 0 0 0 0 0 0 0 0 0 0 0 0 0 0 0 0 0 0 0 0
0 0 0 0 0 0 0 0 0 0 0 0 0 0 0 0 0 0 0 0 0 0 0 0 0 0 0 0 0 0 0 0 0 0 0 0 0 0 0 0 0 0 0
0 0 0 0 0 0 0 0 0 0 0 0 0 0 0 0 0 0 0 0 0 0 0 0 0 0 0 0 0 0 0 0 0 0 0 0 0 0 0 0 0 0 0
0 0 0 0 0 0 0 0 0 0 0 0 0 0 0 0 0 0 0 0 0 0 0 0 0 0 0 0 0 0 0 0 0 0 0 0 0 0 0 0 0 0 0
0 0 0 0 0 0 0 0 0 0 0 0 0 0 0 0 0 0 0 0 0 0 0 0 0 0 0 0 0 0 0 0 0 0 0 0 0 0 0 0 0 0 0
0 0 0 0 0 0 0 0 0 0 0 0 0 0 0 0 0 0 0 0 0 0 0 0 0 0 0 0 0 0 0 0 0 0 0 0 0 0 0 0 0 0 0
0 0 0 0 0 0 0 0 0 0 1 1 0 0 0 0 0 0 0 0 0 0 0 0 0 0 0 0 0 0 0 0 0 0 0 0 0 0 0 0 0 0 0
0 0 0 0 0 0 0 0 0 0 1 1 0 0 0 0 0 0 0 0 0 0 0 0 0 0 0 0 0 0 0 0 0 0 0 0 0 0 0 0 0 0 0
0 0 0 0 0 0 0 0 0 0 1 1 0 0 0 0 1 1 0 0 0 0 0 0 0 0 0 0 0 0 0 0 0 0 0 0 0 0 0 0 0 0 0
0 0 0 0 0 0 0 0 0 0 0 0 0 0 0 0 1 1 0 0 0 0 0 0 0 0 0 0 0 0 0 0 0 0 0 0 0 0 0 0 0 0 0
0 0 0 0 0 0 0 0 0 0 0 0 0 0 0 0 0 0 0 0 0 0 0 0 0 0 0 0 0 0 0 0 0 0 0 0 0 0 0 0 0 0 0
0 0 0 0 0 0 0 0 0 0 0 0 0 0 0 0 0 0 0 0 0 0 0 0 0 0 0 0 0 0 0 0 0 0 0 0 0 0 0 0 0 0 0
0 0 0 0 0 0 0 0 0 0 0 0 0 0 0 0 0 0 0 0 0 0 0 0 0 0 0 0 0 0 0 0 0 0 0 0 0 0 0 0 0 0 0
0 0 0 0 0 0 0 0 0 0 0 0 0 0 0 0 0 0 0 0 0 0 0 0 0 0 0 0 0 0 0 0 0 0 0 0 0 0 0 0 0 0 0
0 0 0 0 0 0 0 0 0 0 0 0 0 0 0 0 0 0 0 0 0 0 0 0 0 0 0 0 0 0 0 0 0 0 0 0 0 0 0 0 0 0 0
0 0 0 0 0 0 0 0 0 0 0 0 0 0 0 0 0 0 0 0 0 0 0 0 0 0 0 0 0 0 0 0 0 0 0 0 0 0 0 0 0 0 0
0 0 0 0 0 0 0 0 0 0 0 0 0 0 0 0 0 0 0 0 0 0 0 0 0 0 0 0 0 0 0 0 0 0 0 0 0 0 0 0 0 0 0
0 0 0 0 0 0 0 0 0 0 0 0 0 0 0 0 0 0 0 0 0 0 0 0 0 0 0 0 0 0 0 0 0 0 0 0 0 0 0 0 0 0 0
0 0 0 0 0 0 0 0 0 0 0 0 0 0 0 0 0 0 0 0 0 0 0 0 0 0 0 0 0 0 0 0 0 0 0 0 0 0 0 0 0 0 0
0 0 0 0 0 0 0 0 0 0 0 0 0 0 0 0 0 0 0 0 0 0 0 0 0 0 0 0 0 0 0 0 0 0 0 0 0 0 0 0 0 0 0
Wind_Speed
7 10 9 10 12 11 11 11 11 11 11 11 12 12 12 12 13 13 13 13 14 13 13 13 13 13 13 12 12 12 12 13 13 13 13 14 14 14 14 13 9 10 11
7 11 9 10 11 11 10 10 10 10 11 11 11 11 11 12 13 13 13 13 13 13 13 13 13 12 12 11 10 10 10 10 10 10 7 10 12 13 14 14 14 10 13
7 11 11 9 10 10 10 10 10 10 11 11 11 11 11 12 12 12 12 12 12 12 12 12 12 12 11 10 9 8 7 8 8 6 2 6 10 12 12 13 13 14 14
7 10 10 9 10 10 10 9 9 9 10 10 10 10 11 11 11 11 11 11 11 11 11 12 12 12 12 11 10 8 7 6 5 2 4 6 7 10 11 12 12 13 13
6 9 9 8 9 10 10 9 8 8 8 9 9 9 10 10 10 11 10 10 10 10 11 11 12 12 12 11 10 9 7 6 3 1 5 5 6 9 10 10 11 11 12
5 7 8 6 7 9 9 8 8 8 8 8 8 8 8 9 10 10 10 10 10 10 11 11 12 12 12 11 10 9 7 5 2 3 4 5 6 8 8 8 8 9 10
4 4 6 5 6 7 8 8 8 7 7 7 7 7 7 9 9 10 10 9 9 10 10 11 11 12 12 11 11 9 8 6 3 4 4 5 7 6 6 7 6 7 8
5 3 2 3 3 5 7 8 8 7 7 6 6 6 7 7 8 9 9 9 9 10 10 10 11 12 12 12 11 10 10 7 3 4 4 5 8 6 6 6 6 5 6
8 6 3 1 5 6 7 7 8 8 7 7 6 6 5 5 7 8 9 9 10 10 10 10 10 11 11 12 12 11 10 9 5 4 4 5 9 7 6 6 6 5 5
9 8 6 5 3 5 7 8 7 7 7 7 7 6 6 6 7 8 8 9 10 10 10 9 9 9 10 10 11 10 8 5 6 5 4 7 10 7 6 6 6 5 4
9 8 7 6 5 4 5 5 7 7 7 7 7 7 6 5 6 6 7 8 9 10 10 10 9 8 6 7 8 7 5 4 5 4 5 11 12 9 7 6 5 5 4
10 9 7 6 5 4 3 4 5 5 5 6 5 5 5 3 2 3 7 8 9 9 10 10 9 7 3 4 4 3 3 5 4 4 5 11 12 11 9 7 5 5 4
9 9 8 7 5 4 3 3 2 2 2 3 3 3 3 2 2 3 3 5 6 6 5 7 5 2 2 2 3 3 3 3 3 3 4 9 10 11 11 9 7 5 4
9 10 9 8 5 3 3 2 2 1 0 0 1 1 1 1 2 3 2 3 3 2 3 2 2 2 2 2 2 2 2 2 3 3 3 6 8 10 11 11 9 7 5
9 10 10 9 5 0 2 2 1 2 2 3 4 4 3 1 1 1 1 2 2 1 1 1 1 2 1 1 1 2 3 3 3 3 2 3 6 8 9 11 11 10 8
10 10 10 9 7 5 4 4 4 5 6 6 6 8 7 4 3 3 3 3 2 2 2 1 2 1 1 2 2 3 3 4 3 4 4 3 3 6 8 9 10 11 11
8 9 9 8 9 10 10 10 8 8 9 9 8 10 11 9 7 6 5 4 4 3 3 3 3 2 2 2 3 3 3 4 4 5 5 4 4 4 6 8 10 11 12
7 8 8 7 11 13 12 12 9 10 10 9 9 10 13 12 10 8 7 6 6 5 4 4 3 2 2 2 3 3 3 3 5 5 4 4 4 4 5 7 10 11 12
7 6 7 9 11 12 13 12 12 11 11 9 9 10 11 12 11 9 8 7 6 5 5 4 4 3 3 3 3 3 3 3 4 4 5 5 5 5 5 6 8 8 11
6 6 7 9 9 10 10 10 10 12 11 10 10 11 12 11 12 10 8 9 8 7 6 5 5 5 4 5 4 4 3 3 2 3 4 3 3 5 5 6 6 5 8
7 7 7 8 7 6 5 7 8 9 9 10 10 13 13 13 13 11 9 10 9 9 9 9 6 6 6 6 4 4 2 1 2 3 3 3 4 5 5 6 6 6 6
8 8 8 8 8 8 7 7 7 9 9 9 9 12 14 14 13 11 12 10 10 9 11 11 9 6 6 7 6 5 4 1 3 3 3 4 5 5 6 7 8 7 7
8 7 7 8 9 10 10 9 9 8 8 8 10 10 12 13 14 13 13 11 11 10 10 12 11 11 8 8 8 7 5 5 7 3 4 4 6 7 8 8 9 9 9
7 7 8 9 10 9 8 8 10 9 9 8 8 9 11 12 13 13 13 12 12 10 11 10 11 9 9 7 6 6 5 5 6 7 4 5 8 9 9 9 9 9 9
6 6 7 9 10 10 10 11 13 12 11 9 9 10 10 10 11 12 11 11 10 9 10 10 10 10 8 8 6 5 5 4 4 5 8 9 9 7 8 10 9 8 8
6 7 7 10 11 10 11 11 13 14 12 11 10 9 8 7 8 10 10 9 9 8 8 8 8 9 7 7 5 5 5 4 6 6 9 11 11 9 10 7 7 7 8
Wind_Direction
171 163 147 150 143 136 128 121 117 116 116 116 115 113 109 104 98 91 83 76 71 67 65 64 63 60 55 53 53 53 56 59 60 60 63 62 59 58 53 41 39 62 53
160 163 151 155 147 141 134 129 126 125 123 121 119 116 111 105 99 91 83 74 69 65 62 60 59 58 55 51 50 52 57 62 64 59 60 76 65 59 57 51 46 51 51
158 162 161 159 150 145 141 138 136 132 129 126 123 119 114 108 100 92 84 75 68 63 59 55 52 49 46 43 42 46 58 68 68 56 35 69 73 63 60 57 54 53 53
157 166 166 158 156 151 149 147 144 139 134 131 126 121 116 111 103 95 87 78 70 63 57 51 46 41 36 32 32 36 52 69 68 2 54 57 68 66 60 58 56 54 52
153 171 161 164 163 158 155 153 151 145 140 137 132 128 123 117 108 101 91 81 71 63 56 49 42 36 30 27 26 30 43 60 66 35 61 54 65 69 62 59 57 54 50
138 172 165 176 173 167 163 161 160 156 151 146 142 138 133 127 118 110 99 87 74 64 58 50 42 35 30 26 25 28 35 36 287 59 55 44 56 70 64 59 57 54 50
109 157 172 181 189 178 172 170 169 168 163 158 154 150 144 140 135 126 113 98 82 70 62 54 44 37 33 30 28 30 34 13 13 51 45 39 44 48 56 51 48 48 47
69 89 156 173 214 199 187 182 177 178 175 171 169 164 156 154 152 140 125 109 93 79 70 60 48 40 36 33 32 34 32 9 28 42 36 35 27 28 43 36 32 38 44
50 47 24 254 219 218 211 201 188 184 184 182 183 177 168 168 165 150 136 122 107 94 85 71 57 48 41 36 36 35 30 8 6 32 24 26 8 15 27 23 17 21 32
41 31 16 350 300 244 223 211 205 197 195 194 192 185 180 183 175 158 150 133 120 109 102 90 76 64 53 45 39 33 20 351 18 16 14 18 359 359 9 10 4 4 12
28 20 9 351 326 287 252 226 216 211 209 210 204 191 195 206 187 168 154 139 131 123 118 110 100 86 73 60 47 33 18 18 12 10 16 6 356 351 352 356 353 349 352
4 1 356 342 322 292 256 236 228 217 217 224 227 208 209 209 185 163 141 145 138 134 133 130 125 117 79 51 58 38 31 17 9 11 19 4 356 349 342 339 338 336 338
349 352 349 338 313 280 243 224 218 214 225 240 248 236 221 204 171 172 149 145 145 147 145 143 147 125 91 65 42 42 31 14 8 2 16 5 355 348 340 333 325 321 323
356 354 349 341 320 269 236 212 195 179 173 336 351 331 258 202 185 173 163 160 161 163 161 164 160 148 137 118 74 45 32 10 3 352 7 3 351 348 342 333 324 313 302
1 355 350 346 349 280 174 144 104 90 66 45 32 18 8 345 174 150 135 143 152 146 166 163 181 180 179 135 53 15 10 4 350 337 337 353 342 344 343 339 330 321 307
1 354 350 2 25 70 85 77 65 60 58 51 40 27 28 30 49 68 67 61 58 56 45 37 25 10 11 8 357 354 342 340 335 328 327 323 320 334 337 337 335 332 326
3 0 4 17 45 66 70 67 61 58 57 50 42 36 38 41 49 60 63 55 48 54 63 62 49 36 29 3 340 334 322 317 314 315 318 321 323 326 331 336 337 336 333
14 16 22 40 61 68 70 69 64 59 59 52 45 42 41 45 49 56 56 49 48 52 51 52 39 29 23 356 330 317 299 295 295 305 309 317 324 328 329 343 338 336 333
27 34 49 59 71 77 78 76 71 65 58 52 47 44 43 46 50 58 56 49 49 53 48 47 42 28 12 352 322 298 286 284 300 307 314 324 330 330 329 337 333 328 331
47 58 70 75 81 89 87 83 77 67 60 54 49 45 45 46 48 56 58 50 47 48 41 35 43 36 18 342 313 297 297 312 320 334 339 345 348 345 338 337 327 327 325
60 65 71 78 82 92 91 87 81 71 64 60 54 49 49 49 49 51 54 50 47 48 41 31 27 31 24 353 328 323 321 26 37 33 19 19 27 14 357 349 341 334 325
66 68 71 74 78 81 87 88 86 91 76 70 64 56 52 53 52 53 53 52 47 48 43 35 29 25 29 18 357 332 332 336 47 15 22 20 15 6 1 356 345 332 323
68 64 72 77 80 85 96 102 107 98 89 74 64 60 52 54 57 58 57 57 51 49 45 38 31 32 28 30 27 7 348 343 331 323 358 356 360 351 345 340 331 324 317
74 77 82 84 84 87 95 103 104 100 94 85 80 75 65 57 57 57 58 58 55 52 48 42 38 33 32 27 25 24 14 340 324 320 319 341 346 332 330 328 322 319 315
91 91 95 94 90 92 97 101 101 99 101 101 95 84 75 64 58 56 56 57 55 52 48 44 41 38 35 32 23 8 1 347 346 312 312 323 323 323 325 319 312 313 317
114 108 109 105 98 99 101 103 107 111 114 111 103 96 84 75 65 58 58 57 55 52 45 41 40 40 33 29 23 17 3 344 337 319 309 314 315 317 316 304 304 315 316